Regional Weather Roundup
Issued by NWS

Home | Current Version | Previous Version | Graphics & Text | Print | Product List | Glossary On
Versions: 1 2 3 4 5 6 7 8 9 10 11 12 13 14 15 16 17 18 19 20 21 22 23 24 25 26 27 28 29 30 31 32 33 34 35 36 37 38 39 40 41 42 43 44 45 46 47 48 49 50
000
ASUS44 KMEG 031310
RWRTN
TENNESSEE HOURLY STATE WEATHER ROUNDUP
NATIONAL WEATHER SERVICE MEMPHIS TN
800 AM CDT MON AUG 03 2015

TNZ002-004-019-021-049-052-054-088>092-031400-
WEST TENNESSEE

CITY           SKY/WX    TMP DP  RH WIND       PRES   REMARKS
MEMPHIS INTL   MOSUNNY   81  68  64 CALM      29.94R
NWS MEMPHIS      N/A     78 N/A N/A MISG        N/A
JACKSON        SUNNY     76  66  71 S5        29.95R
DYERSBURG        N/A    N/A N/A N/A MISG        N/A
PARIS          SUNNY     75  70  83 SW5       29.94S
LEXINGTON      SUNNY     72  66  83 CALM      29.95R
$$

TNZ008-025-027-028-033-062-065-066-031400-
NORTH MIDDLE TENNESSEE

CITY           SKY/WX    TMP DP  RH WIND       PRES   REMARKS
NASHVILLE      MOSUNNY   73  66  78 CALM      29.95S
CLARKSVILLE    SUNNY     74  66  76 SW5       29.93R
SMYRNA         SUNNY     69  67  93 CALM      29.97R
CROSSVILLE     SUNNY     72  62  71 CALM      30.02R
$$

TNZ061-075-076-078-094-096-097-031400-
SOUTH MIDDLE TENNESSEE

CITY           SKY/WX    TMP DP  RH WIND       PRES   REMARKS
FAYETTEVILLE     N/A     70  61  73 NE3       29.98R
TULLAHOMA      SUNNY     72  61  68 CALM      29.99S
WINCHESTER     SUNNY     66  61  82 CALM      29.99R
COLUMBIA       SUNNY     72  72 100 CALM      29.95S
SHELBYVILLE    SUNNY     70  66  88 CALM      29.98S
$$

TNZ017-018-042-046-047-031400-
NORTHEAST TENNESSEE

CITY           SKY/WX    TMP DP  RH WIND       PRES   REMARKS
TRI CITIES     MOSUNNY   70  63  78 CALM      30.01R
ELIZABETHTON   SUNNY     72  61  68 CALM      30.02R
$$

TNZ012-013-036-069-073-074-031400-
CENTRAL EAST TENNESSEE

CITY           SKY/WX    TMP DP  RH WIND       PRES   REMARKS
KNOXVILLE      NOT AVBL
OAK RIDGE      MOSUNNY   70  63  78 CALM      29.99R
GATLINBURG     SUNNY     70  63  78 CALM      29.98R
MORRISTOWN     SUNNY     73  64  73 CALM      30.01R
$$

TNZ083-085-099-031400-
SOUTHEAST TENNESSEE

CITY           SKY/WX    TMP DP  RH WIND       PRES   REMARKS
CHATTANOOGA    MOSUNNY   74  65  73 W3        29.97R
$$

SKY/WX REPORTED AS FAIR MEANS FEW OR NO CLOUDS BELOW
12 THOUSAND FEET.



USA.gov is the U.S. government's official web portal to all federal, state and local government web resources and services.